This is the latest recevied weather packets stored in our database for station/object KTXK. If no packets are shown the sender has not sent any weather packets the latest 1 day(s).
| Time | Temp. | Humidity | Pressure | Rain* | Wind** | Luminosity | Snow |
|---|---|---|---|---|---|---|---|
| 1778013823 | 28.89° C | 66% | 1005.8 hPa | - | 4.92 m/s, 220° | - | - |
| 1778013221 | 28.89° C | 66% | 1005.8 hPa | - | 4.92 m/s, 220° | - | - |
| 1778012625 | 28.89° C | 66% | 1005.8 hPa | - | 4.92 m/s, 220° | - | - |
| 1778012020 | 28.89° C | 66% | 1005.8 hPa | - | 4.92 m/s, 220° | - | - |
| 1778011418 | 28.89° C | 66% | 1005.8 hPa | - | 4.92 m/s, 220° | - | - |
| 1778010822 | 27.78° C | 65% | 1006.1 hPa | - | 5.81 m/s, 230° | - | - |
| 1778010222 | 27.78° C | 65% | 1006.1 hPa | - | 5.81 m/s, 230° | - | - |
| 1778009619 | 26.67° C | 69% | 1005.4 hPa | - | 4.02 m/s, 200° | - | - |
| 1778009021 | 26.67° C | 69% | 1005.4 hPa | - | 4.02 m/s, 200° | - | - |
| 1778008420 | 26.67° C | 69% | 1005.4 hPa | - | 4.02 m/s, 200° | - | - |
| 1778007824 | 27.78° C | 65% | 1005.4 hPa | - | 4.02 m/s, 180° | - | - |
| 1778007223 | 26.67° C | 69% | 1005.1 hPa | - | 4.02 m/s, 180° | - | - |
| 1778006622 | 25.56° C | 74% | 1006.8 hPa | - | 5.36 m/s, 200° | - | - |
| 1778006024 | 25.56° C | 74% | 1006.8 hPa | - | 5.36 m/s, 200° | - | - |
| 1778005422 | 25.56° C | 74% | 1006.8 hPa | - | 5.36 m/s, 200° | - | - |
| 1778004820 | 25.56° C | 74% | 1006.8 hPa | - | 5.36 m/s, 200° | - | - |
| 1778004222 | 25.56° C | 74% | 1006.8 hPa | - | 5.36 m/s, 200° | - | - |
| 1778003621 | 23.89° C | 83% | 1006.8 hPa | - | 4.92 m/s, 200° | - | - |
| 1778003016 | 23.89° C | 83% | 1006.8 hPa | - | 4.92 m/s, 200° | - | - |
| 1778002419 | 23.89° C | 83% | 1006.8 hPa | - | 4.92 m/s, 200° | - | - |
| 1778001818 | 23.89° C | 83% | 1006.8 hPa | - | 4.92 m/s, 200° | - | - |
| 1778001224 | 23.89° C | 83% | 1006.8 hPa | - | 4.92 m/s, 200° | - | - |
| 1778000622 | 23.89° C | 83% | 1006.8 hPa | - | 4.92 m/s, 200° | - | - |
| 1778000022 | 22.78° C | 88% | 1006.8 hPa | - | 5.36 m/s, 200° | - | - |
| 1777999424 | 22.78° C | 88% | 1006.8 hPa | - | 5.36 m/s, 200° | - | - |
* Rain since midnight (hover to see other rain measurements)
** Current wind speed in m/s (hover to see current wind gust speed)